Weather Service Report


814 
ASUS42 KFFC 301210
RWRGA 
WEATHER ROUNDUP FOR GEORGIA
NATIONAL WEATHER SERVICE PEACHTREE CITY GA
800 AM EDT THU JUL 30 2015

NOTE: "FAIR" INDICATES FEW OR NO CLOUDS BELOW 12,000 FEET WITH NO
SIGNIFICANT WEATHER AND/OR OBSTRUCTIONS TO VISIBILITY. 

* = USE WITH CAUTION. THE STATIONS MARKED WITH AN ASTERISK MAY NOT
REPORT WEATHER SUCH AS PRECIPITATION, FOG, OR THUNDER AND ARE NOT 
QUALITY CONTROLLED BY NWS.

THE REMARK "TC" DENOTES TEMPERATURE READING IN DEGREES CELSIUS.

GAZ001>058-301300-
NORTH GEORGIA
  
CITY           SKY/WX    TMP DP  RH WIND       PRES   REMARKS
ATLANTA        MOSUNNY   79  73  82 E5        30.00R                  
6HR MIN TEMP:  76; 6HR MAX TEMP:  81;                                

ATHENS         SUNNY     76  73  91 NW3       30.00R                  
6HR MIN TEMP:  74; 6HR MAX TEMP:  77;                                

CHAMBLEE       MOSUNNY   79  75  87 CALM      29.99F                  
6HR MIN TEMP:  76; 6HR MAX TEMP:  80;                                

PEACHTREE CITY SUNNY     78  75  90 CALM      30.00R                  
6HR MIN TEMP:  75; 6HR MAX TEMP:  78;                                

ROME           SUNNY     78  73  84 NW3       29.99R                  
6HR MIN TEMP:  73; 6HR MAX TEMP:  78;                                

WEST ATLANTA   MOSUNNY   79  75  87 NW6       29.99S                  
6HR MIN TEMP:  76; 6HR MAX TEMP:  80;                                

GAINESVILLE    SUNNY     78  71  79 CALM      30.04R                  
6HR MIN TEMP:  73; 6HR MAX TEMP:  78;                                

CARTERSVILLE   SUNNY     75  73  93 CALM      30.01R                  
6HR MIN TEMP:  71; 6HR MAX TEMP:  75;                                


  
CITY           SKY/WX    TMP DP  RH WIND       PRES   REMARKS
DALTON*        SUNNY     73  73 100 N6        30.01R                  
LAWRENCEVILLE* SUNNY     75  66  73 CALM      29.99R                  
MARIETTA       PTSUNNY   79  75  88 E2        30.00R                  
BLAIRSVILLE*   HAZE      71  64  77 E6        30.06S VSB 1/4          
$$

GAZ059>098-102>109-301300-
CENTRAL GEORGIA
  
CITY           SKY/WX    TMP DP  RH WIND       PRES   REMARKS
AUGUSTA-BUSH   SUNNY     77  76  96 SE3       29.95R                  
6HR MIN TEMP:  75; 6HR MAX TEMP:  78; 6HR PCP:  0.11;                

AUGUSTA-DANIEL SUNNY     79  71  76 CALM      29.97R                  
6HR MIN TEMP:  76; 6HR MAX TEMP:  79;                                

COLUMBUS       SUNNY     78  73  84 N8        29.96R                  
6HR MIN TEMP:  76; 6HR MAX TEMP:  79; 6HR PCP: TRACE;                

MACON          SUNNY     76  74  93 W3        29.95R SMOKE            
6HR MIN TEMP:  74; 6HR MAX TEMP:  78;                                

ROBINS AFB     SUNNY     77  75  93 CALM      29.94R                  

  
CITY           SKY/WX    TMP DP  RH WIND       PRES   REMARKS
LAGRANGE*      SUNNY     80  80  99 CALM      29.99R                  
SYLVANIA*      SUNNY     78  76  94 CALM      29.96R                  
MILLEDGEVILLE* SUNNY     79  73  83 CALM      29.96R                  
$$

GAZ099>101-110>166-301300-
SOUTH GEORGIA
  
CITY           SKY/WX    TMP DP  RH WIND       PRES   REMARKS
SAVANNAH       MOSUNNY   79  73  82 CALM      29.95R                  
6HR MIN TEMP:  75; 6HR MAX TEMP:  79;                                

VALDOSTA       MOSUNNY   76  75  97 CALM      29.95S                  
6HR MIN TEMP:  75; 6HR MAX TEMP:  76;                                

ALMA           FOG       74  74 100 CALM      29.96R VSB 3/4          
6HR MIN TEMP:  74; 6HR MAX TEMP:  75;                                

ST SIMONS      SUNNY     79  75  87 CALM      29.94R                  
6HR MIN TEMP:  75; 6HR MAX TEMP:  79;                                

FT STEWART     MOSUNNY   76  73  90 N1        29.92R                  
ALBANY         CLOUDY    77  75  93 S3        29.97R FOG              
HUNTER AFB     SUNNY     80  75  83 N7        29.92R                  
MOODY AFB      MOSUNNY   75  73  94 CALM      29.95R                  
BRUNSWICK      SUNNY     73  73 100 CALM      29.95R                  

  
CITY           SKY/WX    TMP DP  RH WIND       PRES   REMARKS
BAINBRIDGE*    FOG       79  77  94 CALM      29.95R VSB 1/2          
MOULTRIE*      MOSUNNY   75  73  94 CALM      29.97R FOG              
VIDALIA*       HVY RAIN  77  73  88 CALM      29.96R                  
WAYCROSS*      FOG       78  78 100 W5          N/A  VSB 1/2          
DOUGLAS*       MOSUNNY   77  75  94 CALM      29.98R FOG              
$$

Return to Home page


Western Regional Climate Center, wrcc@dri.edu